[[{"header":{"parameterUnit":"m.s-1","parameterCategory":1,"la1":30.2991,"la2":30.254,"lo1":-89.0895,"lo2":-89.0444,"dy":0.0017,"dx":0.0017,"nx":28,"ny":28,"refTime":"2025-06-13T03:00:00:Z","depth":0,"parameterNumber":2,"parameterNumberName":"U-component_of_WINDS"},"data":[0,0,0,0,0,0,0,0,0,0,0,0,0,0,0,0,0,0,0,0,0,0,0,0,0,0,0,0,0,0,0,0,0,0,0,0,0,0,0,0,0,0,0,0,0,0,0,0,0,0,0,0,0,0,0,0,0,0,1.8152,1.8152,0,1.8151,1.8151,1.8151,1.8112,1.8111,1.811,1.8109,1.8107,1.8108,1.8109,0,0,0,0,0,0,0,0,0,0,0,0,0,1.8118,1.8119,1.8152,1.8152,1.8152,1.8151,1.8151,1.8151,1.8112,1.811,1.8109,1.8108,1.8106,1.8108,1.8109,0,0,0,0,0,0,0,0,0,0,0,0,0,1.8127,1.8119,1.8152,1.8132,1.8131,1.8151,1.8151,1.8151,1.8112,1.811,1.8109,1.8107,1.8106,1.8107,1.8109,1.8148,0,0,1.8113,1.8114,0,0,0,0,0,0,0,0,1.8126,1.8128,1.8135,1.8134,1.8132,1.813,1.8138,1.815,1.8112,1.8119,1.8109,1.8107,1.8116,1.8116,1.8119,1.8148,1.8148,1.8113,1.8114,1.8115,1.8115,0,0,0,0,0,0,0,1.8126,1.8128,1.8152,1.8136,1.8133,1.8123,1.8122,1.814,1.8126,1.8118,1.8116,1.8116,1.8114,1.8118,1.8119,1.8148,1.8113,1.8114,1.8115,1.8116,1.8206,1.8207,0,0,0,0,0,0,1.8128,1.8127,1.8152,1.8152,1.8125,1.8125,1.8124,1.8132,1.8126,1.8123,1.8117,1.8114,1.8117,1.8117,1.8119,1.8162,1.8114,1.8116,1.8117,1.8204,1.8206,1.8208,0,0,0,0,0,0,1.8127,1.8131,1.8152,1.8139,1.8141,1.8127,1.8136,1.8133,1.8137,1.8125,1.8122,1.8124,1.8115,1.8117,1.814,1.8162,1.8116,1.8118,1.8202,1.8205,1.8207,1.8251,0,0,0,0,0,0,1.8127,1.8131,1.8146,1.814,1.8142,1.8174,1.8138,1.8134,1.8139,1.8135,1.813,1.8128,1.8114,1.8139,1.8142,1.8163,1.8119,1.82,1.8203,1.8206,1.8247,1.8254,1.826,0,0,0,0,0,1.8125,1.8159,1.8147,1.815,1.8161,1.8176,1.8177,1.8161,1.8141,1.8156,1.8148,1.8128,1.8159,1.8141,1.8145,1.8166,1.8199,1.8203,1.8206,1.8244,1.8253,1.826,0,0,0,0,0,0,1.8168,1.8158,1.8144,1.8177,1.8177,1.8169,1.8187,1.8171,1.8177,1.8173,1.8152,1.8151,1.8177,1.8175,1.8155,1.8203,1.8175,1.818,1.8203,1.8211,1.8218,1.8217,1.812,0,0,0,0,0,1.8182,1.8195,1.8185,1.8214,1.8215,1.8201,1.8207,1.8195,1.8194,1.8195,1.8188,1.8189,1.8198,1.8205,1.8213,1.8247,1.8244,1.8263,1.827,1.8275,1.8279,1.8294,1.8301,1.8219,1.8219,1.8219,0,0,1.8209,1.8205,1.8215,1.8223,1.8222,1.8235,1.8202,1.8218,1.8227,1.8197,1.8218,1.8214,1.8213,1.8241,1.8253,1.8239,1.8301,1.828,1.8284,1.8285,1.8298,1.8306,1.8313,1.8222,1.8221,1.8221,0,0,1.8265,1.8265,1.8287,1.8287,1.8286,1.8276,1.8281,1.8275,1.8271,1.8292,1.8269,1.8279,1.8297,1.8296,1.8298,1.8353,1.8334,1.8356,1.8389,1.8404,1.8411,1.8416,1.8433,1.844,1.836,1.836,1.836,0,1.8299,1.8319,1.8302,1.8319,1.8322,1.8295,1.8317,1.8317,1.8319,1.8321,1.8306,1.8326,1.8323,1.835,1.8363,1.8366,1.837,1.8356,1.8411,1.8417,1.8422,1.8438,1.8444,1.8362,1.8362,1.8362,1.8362,0,1.836,1.8374,1.8392,1.8394,1.8399,1.8419,1.8404,1.8411,1.8398,1.839,1.841,1.8406,1.8412,1.8418,1.8405,1.8442,1.8433,1.8415,1.8387,1.8432,1.8447,1.8453,1.8366,1.8365,1.8364,1.8364,0,0,1.8443,1.8433,1.844,1.8439,1.8435,1.8445,1.8463,1.8469,1.8475,1.8477,1.849,1.8505,1.8487,1.8489,1.8477,1.849,1.853,1.847,1.8469,1.8479,1.8568,1.858,1.8588,1.8518,1.852,1.8521,1.8567,0,1.8495,1.8525,1.8509,1.8541,1.8552,1.8526,1.8541,1.8539,1.8532,1.854,1.8531,1.8541,1.8519,1.8519,1.8532,1.8523,1.8547,1.852,1.8529,1.853,1.8528,1.8596,1.8609,1.8653,1.8573,1.8574,1.8575,0,1.8561,1.8564,1.8597,1.8588,1.8592,1.8606,1.8609,1.8618,1.8615,1.8608,1.861,1.8593,1.8609,1.8583,1.8603,1.8584,1.8587,1.8583,1.8584,1.8583,1.8554,1.8594,1.8667,1.8673,1.8584,1.8583,1.8583,0,1.8615,1.8628,1.8648,1.8649,1.864,1.865,1.8647,1.8643,1.8647,1.8649,1.8651,1.8656,1.8658,1.8661,1.8645,1.8628,1.8667,1.864,1.866,1.8661,1.8668,1.8668,1.8741,1.8674,1.8674,1.8674,1.8674,0,1.8674,1.8694,1.8672,1.8685,1.8706,1.8687,1.8709,1.8703,1.8699,1.8709,1.8687,1.8697,1.8677,1.8684,1.8672,1.869,1.8691,1.8685,1.8681,1.8686,1.8687,1.8686,1.8682,1.8675,1.8675,1.8675,1.8674,0,1.8737,1.8724,1.8744,1.8734,1.8732,1.8748,1.8739,1.8749,1.874,1.8753,1.8755,1.874,1.8747,1.8732,1.8738,1.873,1.8754,1.8746,1.8754,1.8751,1.8772,1.8769,1.8846,1.8854,1.8784,1.8785,1.8785,0,1.8775,1.879,1.8781,1.8786,1.8784,1.8792,1.8795,1.8777,1.8782,1.8779,1.8789,1.8795,1.8798,1.8811,1.88,1.8804,1.8795,1.8821,1.8795,1.8799,1.8793,1.8791,1.8791,1.8826,1.8827,1.8828,1.8828,0,1.8842,1.8834,1.884,1.8843,1.8847,1.8848,1.8848,1.8853,1.8834,1.884,1.8847,1.8849,1.8854,1.8859,1.886,1.8856,1.8839,1.8837,1.8841,1.8845,1.8848,1.8845,1.8767,1.8835,1.8834,1.8834,1.8833,1.8833,1.8892,1.8903,1.8898,1.8904,1.8902,1.8902,1.8911,1.8902,1.8908,1.891,1.8899,1.8908,1.8903,1.8903,1.8901,1.8907,1.8895,1.8902,1.8904,1.8905,1.8907,1.8849,1.8907,1.8907,1.8907,1.8907,1.8907,0,1.8956,1.8951,1.8957,1.8957,1.8962,1.8945,1.8944,1.8948,1.8956,1.8954,1.8957,1.8964,1.8969,1.8958,1.8961,1.8968,1.8959,1.8969,1.8967,1.8966,1.8919,1.8914,1.8975,1.8975,1.8975,1.8975,1.8975,1.8975,1.899,1.9006,1.8998,1.9013,1.9008,1.9016,1.9016,1.9016,1.9013,1.9022,1.9025,1.9019,1.9012,1.9014,1.9017,1.9014,1.9015,1.9026,1.902,1.8976,1.897,1.8963,1.8958,1.9027,1.9028,1.9066,1.9066,1.9067]},{"header":{"parameterUnit":"m.s-1","parameterCategory":1,"la1":30.2991,"la2":30.254,"lo1":-89.0895,"lo2":-89.0444,"dy":0.0017,"dx":0.0017,"nx":28,"ny":28,"refTime":"2025-06-13T03:00:00:Z","depth":0,"parameterNumber":3,"parameterNumberName":"V-component_of_WINDS"},"data":[0,0,0,0,0,0,0,0,0,0,0,0,0,0,0,0,0,0,0,0,0,0,0,0,0,0,0,0,0,0,0,0,0,0,0,0,0,0,0,0,0,0,0,0,0,0,0,0,0,0,0,0,0,0,0,0,0,0,5.3563,5.3565,0,5.3686,5.3688,5.3689,5.3636,5.3633,5.363,5.3627,5.3747,5.3752,5.3758,0,0,0,0,0,0,0,0,0,0,0,0,0,5.3274,5.328,5.3563,5.3565,5.3566,5.3686,5.3688,5.369,5.3636,5.3632,5.3629,5.3625,5.3745,5.3752,5.3759,0,0,0,0,0,0,0,0,0,0,0,0,0,5.3399,5.3282,5.3563,5.3554,5.3555,5.3686,5.3688,5.369,5.3637,5.3632,5.3628,5.3624,5.3742,5.3751,5.376,5.3905,0,0,5.3787,5.3791,0,0,0,0,0,0,0,0,5.3392,5.3409,5.3554,5.3555,5.3556,5.3641,5.363,5.3762,5.3638,5.3606,5.3627,5.3621,5.3715,5.3726,5.3758,5.391,5.3915,5.3788,5.3793,5.3797,5.38,0,0,0,0,0,0,0,5.3383,5.3404,5.3612,5.3556,5.3557,5.3542,5.3554,5.3655,5.3683,5.3608,5.3604,5.362,5.3714,5.375,5.3761,5.3917,5.3788,5.3796,5.3801,5.3805,5.419,5.4195,0,0,0,0,0,0,5.3375,5.3397,5.3608,5.3615,5.3461,5.3551,5.3565,5.3618,5.3682,5.3688,5.3624,5.3617,5.3737,5.375,5.3765,5.3936,5.3797,5.3806,5.3811,5.4185,5.4191,5.4197,0,0,0,0,0,0,5.3369,5.3395,5.3603,5.3505,5.3531,5.356,5.3621,5.3623,5.3659,5.3694,5.3698,5.3655,5.3734,5.3752,5.387,5.394,5.381,5.3818,5.418,5.4187,5.4194,5.4282,0,0,0,0,0,0,5.3361,5.3393,5.3451,5.3507,5.3536,5.3709,5.3625,5.3629,5.3675,5.3667,5.3725,5.373,5.3732,5.3857,5.3879,5.395,5.3825,5.4174,5.4183,5.4192,5.4273,5.4292,5.4307,0,0,0,0,0,5.3351,5.347,5.3454,5.3479,5.3609,5.3713,5.3729,5.373,5.3681,5.3737,5.376,5.3728,5.3929,5.3869,5.3894,5.3968,5.4169,5.418,5.4191,5.4265,5.4288,5.4307,0,0,0,0,0,0,5.3419,5.3477,5.346,5.3601,5.3653,5.3704,5.3775,5.3755,5.382,5.381,5.3806,5.382,5.3941,5.3966,5.3899,5.411,5.4041,5.4057,5.4089,5.4111,5.4128,5.4118,5.3832,0,0,0,0,0,5.3451,5.3533,5.3578,5.3698,5.3725,5.3746,5.3791,5.3788,5.384,5.3861,5.3892,5.3943,5.4016,5.4065,5.4135,5.4277,5.4286,5.434,5.4357,5.4371,5.4384,5.4457,5.4481,5.4233,5.4233,5.4232,0,0,5.3516,5.3558,5.361,5.3712,5.3752,5.3834,5.3765,5.3855,5.3915,5.3874,5.3987,5.4012,5.4067,5.4197,5.4255,5.4221,5.4455,5.4385,5.4395,5.4402,5.4471,5.4494,5.4515,5.424,5.4239,5.4238,0,0,5.3677,5.3719,5.3822,5.3863,5.3924,5.3937,5.3962,5.4016,5.4031,5.4145,5.4115,5.4185,5.4314,5.4354,5.4391,5.4565,5.4537,5.4588,5.4677,5.4748,5.4768,5.4785,5.4844,5.4866,5.4601,5.4602,5.4602,0,5.3751,5.3876,5.3877,5.397,5.4014,5.3982,5.4085,5.4124,5.4204,5.4234,5.4196,5.4355,5.439,5.4527,5.4569,5.4601,5.4627,5.4581,5.4765,5.4782,5.4798,5.4855,5.4878,5.4607,5.4607,5.4606,5.4606,0,5.3961,5.4048,5.4124,5.4204,5.4257,5.4354,5.4366,5.4419,5.4411,5.4426,5.4541,5.4582,5.4659,5.4691,5.4683,5.4826,5.4803,5.4765,5.4695,5.4828,5.4881,5.4903,5.4615,5.4613,5.4612,5.461,0,0,5.4169,5.4248,5.4275,5.431,5.4374,5.444,5.4534,5.4611,5.4655,5.4711,5.4787,5.4896,5.4861,5.4903,5.4898,5.4962,5.5093,5.4916,5.4917,5.4945,5.525,5.5276,5.5302,5.5076,5.508,5.5083,5.5244,0,5.4333,5.4501,5.4503,5.4656,5.4734,5.4704,5.4785,5.4832,5.4849,5.4915,5.4933,5.5009,5.4958,5.4983,5.5044,5.5064,5.5154,5.5053,5.5144,5.5147,5.513,5.533,5.5359,5.5509,5.5265,5.5269,5.5271,0,5.4548,5.4612,5.4773,5.4823,5.4856,5.493,5.4999,5.5064,5.5115,5.5122,5.5169,5.5154,5.5247,5.5175,5.53,5.5232,5.5269,5.5284,5.529,5.5297,5.5216,5.534,5.5557,5.5579,5.5304,5.5302,5.5299,0,5.468,5.4806,5.4918,5.4949,5.5012,5.5063,5.5091,5.5138,5.5183,5.5243,5.5271,5.534,5.5377,5.543,5.5433,5.5381,5.5558,5.5487,5.5564,5.5564,5.5602,5.5599,5.5826,5.5629,5.5629,5.5628,5.5628,0,5.4862,5.4961,5.4978,5.5047,5.5155,5.5156,5.5262,5.5286,5.5327,5.5397,5.5375,5.5441,5.5442,5.5508,5.5511,5.5613,5.563,5.5637,5.5636,5.5638,5.5637,5.5661,5.565,5.5634,5.5633,5.5632,5.5631,0,5.5028,5.5044,5.5163,5.5213,5.5228,5.5305,5.5346,5.541,5.5424,5.5513,5.5534,5.5555,5.5632,5.5641,5.573,5.5732,5.5853,5.5843,5.5837,5.5834,5.591,5.5902,5.6159,5.6191,5.5975,5.5977,5.5979,0,5.5143,5.5218,5.5276,5.5322,5.5353,5.5428,5.5474,5.5477,5.5525,5.5587,5.5643,5.5717,5.5777,5.59,5.5922,5.5989,5.5978,5.6064,5.5988,5.5987,5.5977,5.5972,5.5978,5.6078,5.608,5.6082,5.6084,0,5.5343,5.5347,5.5415,5.5486,5.5542,5.5597,5.5649,5.5687,5.5695,5.575,5.5829,5.5876,5.5967,5.604,5.6106,5.6131,5.6108,5.6108,5.6128,5.613,5.6123,5.6125,5.5875,5.6101,5.61,5.6098,5.6097,5.6097,5.5485,5.555,5.56,5.5676,5.5715,5.5764,5.5826,5.5848,5.5914,5.599,5.5986,5.6073,5.6118,5.6204,5.6235,5.63,5.6271,5.6302,5.631,5.6317,5.6323,5.6114,5.6312,5.6312,5.6311,5.6311,5.631,0,5.5682,5.5713,5.5783,5.5857,5.5916,5.5891,5.5946,5.5996,5.6073,5.6119,5.6178,5.6267,5.6338,5.6365,5.6433,5.648,5.6471,5.6497,5.6493,5.6499,5.6346,5.6321,5.6503,5.6503,5.6503,5.6503,5.6503,5.6503,5.5792,5.5899,5.5908,5.6033,5.6063,5.6149,5.6182,5.6225,5.6261,5.6362,5.6422,5.644,5.6477,5.6547,5.6609,5.6615,5.664,5.6671,5.6672,5.6529,5.651,5.6491,5.6467,5.6677,5.6677,5.6819,5.682,5.6821]}]]